Time,TemperatureF,DewpointF,PressureIn,WindDirection,WindDirectionDegrees,WindSpeedMPH,WindSpeedGustMPH,Humidity,HourlyPrecipIn,Conditions,Clouds,dailyrainin,SoftwareType,DateUTC
2013-08-12 00:02:00,60.0,51.0,-100.00,NNW,340,2.0,6.0,71,0.00,,,0.00,,2013-08-12 08:02:00,
2013-08-12 00:11:00,60.0,51.0,-100.00,NNW,340,2.0,6.0,71,0.00,,,0.00,,2013-08-12 08:11:00,
2013-08-12 00:33:00,59.0,51.0,-100.00,NW,325,3.0,6.0,72,0.00,,,0.00,,2013-08-12 08:33:00,
2013-08-12 00:43:00,59.0,51.0,-100.00,NW,325,3.0,6.0,72,0.00,,,0.00,,2013-08-12 08:43:00,
2013-08-12 00:53:00,59.0,51.0,-100.00,WNW,300,4.0,8.0,74,0.00,,,0.00,,2013-08-12 08:53:00,
2013-08-12 01:02:00,59.0,51.0,-100.00,WNW,300,4.0,8.0,74,0.00,,,0.00,,2013-08-12 09:02:00,
2013-08-12 01:11:00,59.0,51.0,-100.00,WNW,300,4.0,8.0,74,0.00,,,0.00,,2013-08-12 09:11:00,
2013-08-12 01:22:00,58.0,51.0,-100.00,NW,320,4.0,9.0,78,0.00,,,0.00,,2013-08-12 09:22:00,
2013-08-12 01:32:00,58.0,51.0,-100.00,NW,320,4.0,9.0,78,0.00,,,0.00,,2013-08-12 09:32:00,
2013-08-12 01:43:00,58.0,51.0,-100.00,NW,320,4.0,9.0,78,0.00,,,0.00,,2013-08-12 09:43:00,
2013-08-12 02:01:00,56.0,51.0,-100.00,WNW,300,6.0,10.0,82,0.00,,,0.00,,2013-08-12 10:01:00,
2013-08-12 02:11:00,56.0,51.0,-100.00,WNW,300,6.0,10.0,82,0.00,,,0.00,,2013-08-12 10:11:00,
2013-08-12 02:32:00,56.0,51.0,-100.00,NW,310,6.0,11.0,85,0.00,,,0.00,,2013-08-12 10:32:00,
2013-08-12 02:43:00,56.0,51.0,-100.00,NW,310,6.0,11.0,85,0.00,,,0.00,,2013-08-12 10:43:00,
2013-08-12 02:52:00,55.0,51.0,-100.00,NW,325,6.0,11.0,86,0.00,,,0.00,,2013-08-12 10:52:00,
2013-08-12 03:02:00,55.0,51.0,-100.00,NW,325,6.0,11.0,86,0.00,,,0.00,,2013-08-12 11:02:00,
2013-08-12 03:12:00,55.0,51.0,-100.00,NW,325,6.0,11.0,86,0.00,,,0.00,,2013-08-12 11:12:00,
2013-08-12 03:32:00,54.0,51.0,-100.00,North,0,6.0,10.0,88,0.00,,,0.00,,2013-08-12 11:32:00,
2013-08-12 03:42:00,54.0,51.0,-100.00,North,0,6.0,10.0,88,0.00,,,0.00,,2013-08-12 11:42:00,
2013-08-12 04:02:00,53.0,51.0,-100.00,NW,325,6.0,9.0,90,0.00,,,0.00,,2013-08-12 12:02:00,
2013-08-12 04:11:00,53.0,51.0,-100.00,NW,325,6.0,9.0,90,0.00,,,0.00,,2013-08-12 12:11:00,
2013-08-12 04:20:00,52.0,50.0,-100.00,NW,315,7.0,12.0,91,0.02,,,0.02,,2013-08-12 12:20:00,
2013-08-12 04:22:00,53.0,50.0,-100.00,NNW,330,6.0,11.0,91,0.01,,,0.01,,2013-08-12 12:22:00,
2013-08-12 04:32:00,53.0,50.0,-100.00,NNW,330,6.0,11.0,91,0.01,,,0.01,,2013-08-12 12:32:00,
2013-08-12 04:43:00,53.0,50.0,-100.00,NNW,330,6.0,11.0,91,0.01,,,0.01,,2013-08-12 12:43:00,
2013-08-12 05:01:00,52.0,50.0,-100.00,NW,315,7.0,12.0,91,0.02,,,0.02,,2013-08-12 13:01:00,
2013-08-12 05:11:00,52.0,50.0,-100.00,NW,315,7.0,12.0,91,0.02,,,0.02,,2013-08-12 13:11:00,
2013-08-12 05:43:00,52.0,50.0,-100.00,NNW,330,6.0,11.0,91,0.01,,,0.02,,2013-08-12 13:43:00,
2013-08-12 06:01:00,52.0,50.0,-100.00,NW,315,6.0,9.0,91,0.00,,,0.02,,2013-08-12 14:01:00,
2013-08-12 06:11:00,52.0,50.0,-100.00,NW,315,6.0,9.0,91,0.00,,,0.02,,2013-08-12 14:11:00,
2013-08-12 06:20:00,52.0,50.0,-100.00,NNW,340,6.0,13.0,91,0.00,,,0.02,,2013-08-12 14:20:00,
2013-08-12 06:22:00,52.0,50.0,-100.00,NW,315,7.0,12.0,91,0.00,,,0.02,,2013-08-12 14:22:00,
2013-08-12 06:32:00,52.0,50.0,-100.00,NW,315,7.0,12.0,91,0.00,,,0.02,,2013-08-12 14:32:00,
2013-08-12 06:42:00,52.0,50.0,-100.00,NW,315,7.0,12.0,91,0.00,,,0.02,,2013-08-12 14:42:00,
2013-08-12 06:52:00,52.0,50.0,-100.00,NNW,340,6.0,13.0,91,0.00,,,0.02,,2013-08-12 14:52:00,
2013-08-12 07:02:00,52.0,50.0,-100.00,NNW,340,6.0,13.0,91,0.00,,,0.02,,2013-08-12 15:02:00,
2013-08-12 07:11:00,52.0,50.0,-100.00,NNW,340,6.0,13.0,91,0.00,,,0.02,,2013-08-12 15:11:00,
2013-08-12 07:43:00,52.0,49.0,-100.00,NNW,335,6.0,12.0,91,0.00,,,0.02,,2013-08-12 15:43:00,
2013-08-12 08:01:00,52.0,49.0,-100.00,NNW,330,6.0,13.0,91,0.00,,,0.02,,2013-08-12 16:01:00,
2013-08-12 08:11:00,52.0,49.0,-100.00,NNW,330,6.0,13.0,91,0.00,,,0.02,,2013-08-12 16:11:00,
2013-08-12 08:20:00,53.0,50.0,-100.00,NNW,340,6.0,12.0,91,0.00,,,0.02,,2013-08-12 16:20:00,
2013-08-12 08:32:00,52.0,49.0,-100.00,North,355,6.0,13.0,91,0.00,,,0.02,,2013-08-12 16:32:00,
2013-08-12 08:42:00,52.0,49.0,-100.00,North,355,6.0,13.0,91,0.00,,,0.02,,2013-08-12 16:42:00,
2013-08-12 08:52:00,53.0,50.0,-100.00,NNW,340,6.0,12.0,91,0.00,,,0.02,,2013-08-12 16:52:00,
2013-08-12 09:01:00,53.0,50.0,-100.00,NNW,340,6.0,12.0,91,0.00,,,0.02,,2013-08-12 17:01:00,
2013-08-12 09:11:00,53.0,50.0,-100.00,NNW,340,6.0,12.0,91,0.00,,,0.02,,2013-08-12 17:11:00,
2013-08-12 09:43:00,53.0,51.0,-100.00,NNW,340,4.0,9.0,91,0.00,,,0.02,,2013-08-12 17:43:00,
2013-08-12 10:01:00,53.0,50.0,-100.00,NNW,330,4.0,9.0,91,0.00,,,0.02,,2013-08-12 18:01:00,
2013-08-12 10:11:00,53.0,50.0,-100.00,NNW,330,4.0,9.0,91,0.00,,,0.02,,2013-08-12 18:11:00,
2013-08-12 10:20:00,54.0,50.0,-100.00,NNW,340,2.0,7.0,83,0.00,,,0.02,,2013-08-12 18:20:00,
2013-08-12 10:32:00,53.0,50.0,-100.00,NW,305,4.0,9.0,89,0.00,,,0.02,,2013-08-12 18:32:00,
2013-08-12 10:43:00,53.0,50.0,-100.00,NW,305,4.0,9.0,89,0.00,,,0.02,,2013-08-12 18:43:00,
2013-08-12 11:01:00,54.0,50.0,-100.00,NNW,340,2.0,7.0,83,0.00,,,0.02,,2013-08-12 19:01:00,
2013-08-12 11:11:00,54.0,50.0,-100.00,NNW,340,2.0,7.0,83,0.00,,,0.02,,2013-08-12 19:11:00,
2013-08-12 11:43:00,57.0,50.0,-100.00,North,0,3.0,6.0,77,0.00,,,0.02,,2013-08-12 19:43:00,
2013-08-12 12:02:00,59.0,49.0,-100.00,NNW,340,4.0,7.0,71,0.00,,,0.02,,2013-08-12 20:02:00,
2013-08-12 12:11:00,59.0,49.0,-100.00,NNW,340,4.0,7.0,71,0.00,,,0.02,,2013-08-12 20:11:00,
2013-08-12 12:32:00,60.0,49.0,-100.00,WNW,290,1.0,7.0,66,0.00,,,0.02,,2013-08-12 20:32:00,
2013-08-12 12:42:00,60.0,49.0,-100.00,WNW,290,1.0,7.0,66,0.00,,,0.02,,2013-08-12 20:42:00,
2013-08-12 13:01:00,62.0,49.0,-100.00,North,10,2.0,7.0,62,0.00,,,0.02,,2013-08-12 21:01:00,
2013-08-12 13:12:00,62.0,49.0,-100.00,North,10,2.0,7.0,62,0.00,,,0.02,,2013-08-12 21:12:00,
2013-08-12 13:32:00,63.0,48.0,-100.00,West,280,4.0,7.0,58,0.00,,,0.02,,2013-08-12 21:32:00,
2013-08-12 13:43:00,63.0,48.0,-100.00,West,280,4.0,7.0,58,0.00,,,0.02,,2013-08-12 21:43:00,
2013-08-12 13:52:00,63.0,47.0,-100.00,NNW,340,3.0,9.0,56,0.00,,,0.02,,2013-08-12 21:52:00,
2013-08-12 14:02:00,63.0,47.0,-100.00,NNW,340,3.0,9.0,56,0.00,,,0.02,,2013-08-12 22:02:00,
2013-08-12 14:11:00,63.0,47.0,-100.00,NNW,340,3.0,9.0,56,0.00,,,0.02,,2013-08-12 22:11:00,
2013-08-12 14:32:00,64.0,47.0,-100.00,West,275,4.0,7.0,55,0.00,,,0.02,,2013-08-12 22:32:00,
2013-08-12 14:43:00,64.0,47.0,-100.00,West,275,4.0,7.0,55,0.00,,,0.02,,2013-08-12 22:43:00,
2013-08-12 15:02:00,65.0,47.0,-100.00,NW,320,4.0,8.0,53,0.00,,,0.02,,2013-08-12 23:02:00,
2013-08-12 15:11:00,65.0,47.0,-100.00,NW,320,4.0,8.0,53,0.00,,,0.02,,2013-08-12 23:11:00,
2013-08-12 15:34:00,66.0,48.0,-100.00,NNW,335,4.0,8.0,52,0.00,,,0.02,,2013-08-12 23:34:00,
2013-08-12 15:43:00,66.0,48.0,-100.00,NNW,335,4.0,8.0,52,0.00,,,0.02,,2013-08-12 23:43:00,
2013-08-12 15:53:00,67.0,48.0,-100.00,West,275,4.0,9.0,50,0.00,,,0.02,,2013-08-12 23:53:00,
2013-08-12 16:02:00,67.0,48.0,-100.00,West,275,4.0,9.0,50,0.00,,,0.02,,2013-08-13 00:02:00,
2013-08-12 16:12:00,67.0,48.0,-100.00,West,275,4.0,9.0,50,0.00,,,0.02,,2013-08-13 00:12:00,
2013-08-12 16:23:00,67.0,48.0,-100.00,North,0,5.0,13.0,49,0.00,,,0.02,,2013-08-13 00:23:00,
2013-08-12 16:34:00,67.0,48.0,-100.00,North,0,5.0,13.0,49,0.00,,,0.02,,2013-08-13 00:34:00,
2013-08-12 16:45:00,67.0,48.0,-100.00,North,0,5.0,13.0,49,0.00,,,0.02,,2013-08-13 00:45:00,
2013-08-12 16:53:00,67.0,48.0,-100.00,WNW,285,2.0,9.0,49,0.00,,,0.02,,2013-08-13 00:53:00,
2013-08-12 17:03:00,67.0,48.0,-100.00,WNW,285,2.0,9.0,49,0.00,,,0.02,,2013-08-13 01:03:00,
2013-08-12 17:13:00,67.0,48.0,-100.00,WNW,285,2.0,9.0,49,0.00,,,0.02,,2013-08-13 01:13:00,
2013-08-12 17:23:00,67.0,47.0,-100.00,North,355,3.0,9.0,50,0.00,,,0.02,,2013-08-13 01:23:00,
2013-08-12 17:33:00,67.0,47.0,-100.00,North,355,3.0,9.0,50,0.00,,,0.02,,2013-08-13 01:33:00,
2013-08-12 17:42:00,67.0,47.0,-100.00,North,355,3.0,9.0,50,0.00,,,0.02,,2013-08-13 01:42:00,
2013-08-12 17:54:00,67.0,48.0,-100.00,WNW,295,6.0,10.0,49,0.00,,,0.02,,2013-08-13 01:54:00,
2013-08-12 18:02:00,67.0,48.0,-100.00,WNW,295,6.0,10.0,49,0.00,,,0.02,,2013-08-13 02:02:00,
2013-08-12 18:11:00,67.0,48.0,-100.00,WNW,295,6.0,10.0,49,0.00,,,0.02,,2013-08-13 02:11:00,
2013-08-12 18:21:00,67.0,48.0,-100.00,North,355,4.0,9.0,50,0.00,,,0.02,,2013-08-13 02:21:00,
2013-08-12 18:32:00,67.0,48.0,-100.00,North,355,4.0,9.0,50,0.00,,,0.02,,2013-08-13 02:32:00,
2013-08-12 18:42:00,67.0,48.0,-100.00,North,355,4.0,9.0,50,0.00,,,0.02,,2013-08-13 02:42:00,
2013-08-12 18:52:00,67.0,48.0,-100.00,North,0,4.0,9.0,50,0.00,,,0.02,,2013-08-13 02:52:00,
2013-08-12 19:02:00,67.0,48.0,-100.00,North,0,4.0,9.0,50,0.00,,,0.02,,2013-08-13 03:02:00,
2013-08-12 19:11:00,67.0,48.0,-100.00,North,0,4.0,9.0,50,0.00,,,0.02,,2013-08-13 03:11:00,
2013-08-12 19:22:00,69.0,49.0,-100.00,WNW,290,3.0,9.0,48,0.00,,,0.02,,2013-08-13 03:22:00,
2013-08-12 19:33:00,69.0,49.0,-100.00,WNW,290,3.0,9.0,48,0.00,,,0.02,,2013-08-13 03:33:00,
2013-08-12 19:43:00,69.0,49.0,-100.00,WNW,290,3.0,9.0,48,0.00,,,0.02,,2013-08-13 03:43:00,
2013-08-12 19:54:00,66.0,47.0,-100.00,NW,305,7.0,11.0,51,0.00,,,0.02,,2013-08-13 03:54:00,
2013-08-12 20:03:00,66.0,47.0,-100.00,NW,305,7.0,11.0,51,0.00,,,0.02,,2013-08-13 04:03:00,
2013-08-12 20:12:00,66.0,47.0,-100.00,NW,305,7.0,11.0,51,0.00,,,0.02,,2013-08-13 04:12:00,
2013-08-12 20:23:00,64.0,46.0,-100.00,NW,310,6.0,14.0,53,0.00,,,0.02,,2013-08-13 04:23:00,
2013-08-12 20:33:00,64.0,46.0,-100.00,NW,310,6.0,14.0,53,0.00,,,0.02,,2013-08-13 04:33:00,
2013-08-12 20:42:00,64.0,46.0,-100.00,NW,310,6.0,14.0,53,0.00,,,0.02,,2013-08-13 04:42:00,
2013-08-12 21:12:00,63.0,46.0,-100.00,North,355,3.0,11.0,53,0.00,,,0.02,,2013-08-13 05:12:00,
2013-08-12 21:21:00,63.0,46.0,-100.00,NW,325,4.0,8.0,54,0.00,,,0.02,,2013-08-13 05:21:00,
2013-08-12 21:32:00,63.0,46.0,-100.00,NW,325,4.0,8.0,54,0.00,,,0.02,,2013-08-13 05:32:00,
2013-08-12 21:42:00,63.0,46.0,-100.00,NW,325,4.0,8.0,54,0.00,,,0.02,,2013-08-13 05:42:00,
2013-08-12 21:52:00,62.0,47.0,-100.00,NNW,330,4.0,8.0,58,0.00,,,0.02,,2013-08-13 05:52:00,
2013-08-12 22:01:00,62.0,47.0,-100.00,NNW,330,4.0,8.0,58,0.00,,,0.02,,2013-08-13 06:01:00,
2013-08-12 22:11:00,62.0,47.0,-100.00,NNW,330,4.0,8.0,58,0.00,,,0.02,,2013-08-13 06:11:00,
2013-08-12 22:21:00,61.0,48.0,-100.00,NNW,335,4.0,10.0,60,0.00,,,0.02,,2013-08-13 06:21:00,
2013-08-12 22:32:00,61.0,48.0,-100.00,NNW,335,4.0,10.0,60,0.00,,,0.02,,2013-08-13 06:32:00,
2013-08-12 22:42:00,61.0,48.0,-100.00,NNW,335,4.0,10.0,60,0.00,,,0.02,,2013-08-13 06:42:00,
2013-08-12 22:52:00,60.0,48.0,-100.00,NNW,345,4.0,9.0,64,0.00,,,0.02,,2013-08-13 06:52:00,
2013-08-12 23:01:00,60.0,48.0,-100.00,NNW,345,4.0,9.0,64,0.00,,,0.02,,2013-08-13 07:01:00,
2013-08-12 23:11:00,60.0,48.0,-100.00,NNW,345,4.0,9.0,64,0.00,,,0.02,,2013-08-13 07:11:00,
2013-08-12 23:21:00,60.0,48.0,-100.00,North,0,4.0,8.0,66,0.00,,,0.02,,2013-08-13 07:21:00,
2013-08-12 23:33:00,60.0,48.0,-100.00,North,0,4.0,8.0,66,0.00,,,0.02,,2013-08-13 07:33:00,
2013-08-12 23:42:00,60.0,48.0,-100.00,North,0,4.0,8.0,66,0.00,,,0.02,,2013-08-13 07:42:00,
2013-08-12 23:52:00,59.0,49.0,-100.00,North,350,4.0,7.0,68,0.00,,,0.02,,2013-08-13 07:52:00,